Jackson, MI

4:41 PM EDT on October 16, 2019 (GMT -0400)
Jackson County-Reynolds

Weather History for KJXN - July, 2019

Change the Weather History Date:

Wednesday, July 10, 2019

  Actual Average Record
Temperature  
Mean Temperature 76 °F 71 °F  
Max Temperature 90 °F 83 °F 95 °F (1966)
Min Temperature 62 °F 60 °F 46 °F (1963)
Degree Days  
Heating Degree Days 0 0  
Month to date heating degree days 0 1  
Since 1 June heating degree days 58 56  
Since 1 July heating degree days 0 1  
Cooling Degree Days 11 7  
Month to date cooling degree days 109 68  
Year to date cooling degree days 212 231  
Since 1 June cooling degree days 202 194  
Growing Degree Days 26 (Base 50)    
Moisture  
Dew Point 68 °F    
Average Humidity 75    
Maximum Humidity 94    
Minimum Humidity 56    
Precipitation  
Precipitation 0.00 in 0.11 in 1.07 in (2017)
Month to date precipitation 1.36 1.08  
Year to date precipitation 18.08 14.95  
Sea Level Pressure  
Sea Level Pressure 29.93 in    
Wind  
Wind Speed 6 mph (South)    
Max Wind Speed 14 mph    
Max Gust Speed 20 mph    
Visibility 10 miles    
Events      
T = Trace of Precipitation, MM = Missing Value Source: NWS Daily Summary

Daily Weather History Graph

Daily Weather History Graph

Search for Another Location

Airport or City:

Astronomy

Jul. 10, 2019 Rise Set
Actual Time 6:10 AM EDT 9:15 PM EDT
Civil Twilight 5:36 AM EDT 9:49 PM EDT
Nautical Twilight 4:53 AM EDT 10:32 PM EDT
Astronomical Twilight 4:01 AM EDT 11:23 PM EDT
Moon 3:16 PM EDT (7/10) 1:55 AM EDT (7/10)
Length of Visible Light 16h 12m
Length of Day
15h 04m
Waxing Gibbous, 63% of the Moon is Illuminated
Jul 10
Waxing Gibbous
Jul 16
Full
Jul 24
Last Quarter
Jul 31
New
Aug 7
First Quarter

Hourly Weather History & Observations

Time (EDT) Temp. Heat Index Dew Point Humidity Pressure Visibility Wind Dir Wind Speed Gust Speed Precip Events Conditions
12:56 AM 68.0 °F - 57.0 °F 68% 30.01 in 10.0 mi ESE 3.5 mph - N/A   Clear
1:56 AM 64.0 °F - 57.9 °F 80% 30.00 in 10.0 mi Calm Calm - N/A   Clear
2:56 AM 64.9 °F - 60.1 °F 84% 29.99 in 10.0 mi Calm Calm - N/A   Clear
3:56 AM 66.0 °F - 60.1 °F 81% 29.98 in 10.0 mi ESE 3.5 mph - N/A   Clear
4:56 AM 64.0 °F - 61.0 °F 90% 29.99 in 10.0 mi Calm Calm - N/A   Clear
5:56 AM 64.0 °F - 61.0 °F 90% 29.98 in 10.0 mi Calm Calm - N/A   Clear
6:56 AM 66.0 °F - 62.1 °F 87% 29.97 in 10.0 mi SE 4.6 mph - N/A   Clear
7:56 AM 71.1 °F - 64.0 °F 78% 29.97 in 10.0 mi SSE 4.6 mph - N/A   Clear
8:56 AM 75.9 °F - 66.0 °F 71% 29.97 in 10.0 mi South 5.8 mph - N/A   Mostly Cloudy
9:56 AM 79.0 °F - 66.9 °F 66% 29.96 in 10.0 mi SSW 8.1 mph - N/A   Clear
10:56 AM 82.9 °F 86.5 °F 69.1 °F 63% 29.95 in 10.0 mi SSW 9.2 mph - N/A   Clear
11:56 AM 84.9 °F 89.4 °F 70.0 °F 61% 29.95 in 10.0 mi South 12.7 mph - N/A   Partly Cloudy
12:56 PM 84.9 °F 90.1 °F 71.1 °F 63% 29.94 in 10.0 mi SSW 9.2 mph - N/A   Clear
1:56 PM 87.1 °F 94.5 °F 73.0 °F 63% 29.93 in 10.0 mi South 13.8 mph 19.6 mph N/A   Partly Cloudy
2:56 PM 87.1 °F 94.5 °F 73.0 °F 63% 29.91 in 10.0 mi SSW 9.2 mph - N/A   Mostly Cloudy
3:56 PM 88.0 °F 96.5 °F 73.9 °F 63% 29.91 in 10.0 mi SSW 9.2 mph - N/A   Mostly Cloudy
4:56 PM 89.1 °F 98.0 °F 73.9 °F 61% 29.89 in 10.0 mi SSW 10.4 mph - N/A   Scattered Clouds
5:56 PM 89.1 °F 96.0 °F 72.0 °F 57% 29.89 in 10.0 mi SW 8.1 mph - N/A   Clear
6:56 PM 89.1 °F 95.0 °F 71.1 °F 55% 29.86 in 10.0 mi SSW 6.9 mph - N/A   Clear
7:56 PM 87.1 °F 94.5 °F 73.0 °F 63% 29.86 in 10.0 mi SW 5.8 mph - N/A   Clear
8:56 PM 82.9 °F 88.8 °F 73.0 °F 72% 29.86 in 10.0 mi Calm Calm - N/A   Clear
9:56 PM 79.0 °F - 72.0 °F 79% 29.87 in 10.0 mi Calm Calm - N/A   Clear
10:56 PM 75.9 °F - 73.0 °F 91% 29.86 in 10.0 mi SW 4.6 mph - N/A   Clear
11:56 PM 79.0 °F - 73.0 °F 82% 29.84 in 10.0 mi South 6.9 mph - N/A   Clear